Location: Ferintosh
(52.7647°N, 112.9692°W)
Time: 18:29:18
(UTC+00:00)

Explorer 7 - Pass Details

Date: 25 May 2024
Orbit: 466 x 622 km, 50.3° (Epoch: 15 June)

Event Time Altitude Azimuth Distance (km) Brightness Sun altitude
Rises 09:15:34 0° 275° (W) 2,599 10.1 -12.6°
Reaches altitude 10° 09:17:45 10° 269° (W) 1,739 9.1 -12.5°
Maximum altitude 09:21:34 49° 195° (SSW) 693 6.9 -12.2°
Drops below altitude 10° 09:25:35 10° 120° (ESE) 1,831 9.5 -11.9°
Sets 09:27:56 0° 115° (ESE) 2,754 10.4 -11.8°
